DW4691 Weather Reports


time (UTC)temp
C
wind
direction
speed
KPH
gust
KPH
rain 1hr
cm
rain 24hr
cm
rain mn
cm
humidity
%
barometer
mb
20260905154559 30 0 0.0 0.0 0.00 0.15 0.00 80 1014.4
20260905153053 30 0 0.0 0.0 0.00 0.15 0.00 79 1014.5
20260905151604 30 0 0.0 0.0 0.00 0.15 0.00 85 1014.5
20260905150054 28 0 0.0 0.0 0.00 0.15 0.00 86 1014.4
20260905144552 27 0 0.0 0.0 0.00 0.15 0.00 91 1014.3
20260905143055 27 0 0.0 0.0 0.00 0.15 0.00 94 1014.3
20260905141551 26 0 0.0 0.0 0.00 0.15 0.00 94 1014.3
20260905140052 25 0 0.0 0.0 0.00 0.15 0.00 94 1014.4
20260905134610 25 0 0.0 0.0 0.00 0.15 0.00 94 1014.2
20260905133057 24 0 0.0 0.0 0.00 0.15 0.00 94 1014.2
20260905131600 23 0 0.0 0.0 0.00 0.15 0.00 94 1014.2
20260905130051 23 0 0.0 0.0 0.00 0.15 0.00 93 1014.1
20260905124602 23 0 0.0 0.0 0.00 0.15 0.00 93 1013.8
20260905123059 23 0 0.0 0.0 0.00 0.15 0.00 93 1013.8
20260905121556 23 0 0.0 0.0 0.00 0.15 0.00 93 1013.5
20260905120110 23 0 0.0 0.0 0.00 0.15 0.00 93 1013.3
20260905114551 23 0 0.0 0.0 0.00 0.15 0.00 93 1013.3
20260905113057 23 0 0.0 0.0 0.00 0.15 0.00 93 1013.3
20260905111609 23 0 0.0 0.0 0.00 0.15 0.00 93 1013.0
20260905110057 23 0 0.0 0.0 0.00 0.15 0.00 93 1012.9
20260905104600 23 0 0.0 0.0 0.00 0.18 0.00 93 1012.7
20260905103053 23 0 0.0 0.0 0.00 0.18 0.00 93 1012.8
20260905101548 23 0 0.0 0.0 0.00 0.18 0.00 93 1012.7
20260905100056 23 0 0.0 0.0 0.00 0.18 0.00 93 1012.6
20260905094552 23 0 0.0 0.0 0.00 0.18 0.00 92 1012.7
20260905093052 23 0 0.0 0.0 0.00 0.18 0.00 93 1012.7
20260905091614 23 0 0.0 0.0 0.00 0.18 0.00 93 1012.7
20260905090117 23 0 0.0 0.0 0.00 0.18 0.00 93 1012.7
20260905084605 23 0 0.0 0.0 0.00 0.18 0.00 93 1012.6
20260905083053 23 0 0.0 0.0 0.00 0.18 0.00 92 1012.6
20260905081551 23 0 0.0 0.0 0.00 0.18 0.00 92 1012.6
20260905080059 24 0 0.0 0.0 0.00 0.18 0.00 92 1012.5
20260905074556 24 0 0.0 0.0 0.00 0.18 0.00 92 1012.7
20260905073059 24 0 0.0 0.0 0.00 0.18 0.00 92 1012.7
20260905071551 24 0 0.0 0.0 0.00 0.18 0.00 92 1013.1
20260905070107 24 0 0.0 0.0 0.00 0.18 0.00 92 1013.1
20260905064554 24 0 0.0 0.0 0.00 0.18 0.00 92 1013.2
20260905063053 24 0 0.0 0.0 0.00 0.18 0.00 92 1013.2
20260905061613 24 0 0.0 0.0 0.00 0.18 0.00 92 1013.2
20260905060109 25 0 0.0 0.0 0.00 0.18 0.00 91 1013.3
20260905054555 25 0 0.0 0.0 0.00 0.18 0.00 91 1013.3
20260905053054 25 0 0.0 0.0 0.00 0.18 0.00 91 1013.2
20260905051604 25 0 0.0 0.0 0.00 0.18 0.00 91 1013.4
20260905050101 25 0 0.0 0.0 0.00 0.18 0.00 91 1013.6
20260905044555 25 0 0.0 0.0 0.00 0.18 0.18 91 1013.4
20260905043051 25 0 0.0 0.0 0.00 0.18 0.18 91 1013.3
20260905041600 25 0 0.0 0.0 0.00 0.18 0.18 91 1013.3
20260905040059 25 0 0.0 0.0 0.00 0.18 0.18 90 1013.4
20260905034605 25 0 0.0 0.0 0.00 0.18 0.18 90 1013.4
20260905033055 25 0 0.0 0.0 0.00 0.18 0.18 90 1013.5
20260905031552 25 0 0.0 0.0 0.00 0.18 0.18 89 1013.5
20260905030125 25 0 0.0 0.0 0.00 0.18 0.18 89 1013.5
20260905024553 26 0 0.0 0.0 0.00 0.18 0.18 89 1013.6
20260905023051 26 0 0.0 0.0 0.00 0.18 0.18 88 1013.5
20260905021557 26 0 0.0 0.0 0.00 0.18 0.18 88 1013.3
20260905020104 26 0 0.0 0.0 0.00 0.18 0.18 89 1013.0
20260905014556 26 0 0.0 0.0 0.00 0.18 0.18 87 1013.0
20260905013052 27 0 0.0 0.0 0.00 0.18 0.18 88 1012.8
20260905011556 27 0 0.0 0.0 0.00 0.18 0.18 88 1012.6
20260905010107 27 0 0.0 0.0 0.00 0.18 0.18 87 1012.5
20260905004558 27 0 0.0 0.0 0.00 0.18 0.18 88 1012.3
20260905003055 28 0 0.0 0.0 0.00 0.18 0.18 87 1012.2
20260905001601 28 0 0.0 0.0 0.00 0.18 0.18 87 1012.1
20260905000112 28 0 0.0 0.0 0.00 0.18 0.18 86 1012.2
20260904234555 28 0 0.0 0.0 0.00 0.18 0.18 86 1012.1
20260904233114 28 0 0.0 0.0 0.00 0.18 0.18 85 1012.2
20260904231602 28 0 0.0 0.0 0.00 0.18 0.18 86 1012.2
20260904230117 29 0 0.0 0.0 0.00 0.18 0.18 85 1012.1
20260904224558 29 0 0.0 0.0 0.00 0.18 0.18 85 1012.1
20260904223127 30 0 0.0 0.0 0.00 0.18 0.18 83 1012.2
20260904221555 31 0 0.0 0.0 0.00 0.18 0.18 80 1012.4
20260904220053 31 0 0.0 0.0 0.00 0.18 0.18 75 1012.5
20260904214602 31 0 0.0 0.0 0.00 0.18 0.18 79 1012.4
20260904213056 31 0 0.0 0.0 0.00 0.18 0.18 79 1012.5
20260904211603 31 0 0.0 0.0 0.00 0.18 0.18 80 1012.7
20260904204602 29 0 0.0 0.0 0.00 0.18 0.18 83 1013.3
20260904203103 27 0 0.0 0.0 0.00 0.18 0.18 90 1013.6
20260904201558 26 0 0.0 0.0 0.00 0.18 0.18 91 1013.8
20260904200054 26 0 0.0 0.0 0.00 0.18 0.18 92 1013.8
20260904194603 26 0 0.0 0.0 0.00 0.18 0.18 92 1013.8
20260904193113 25 0 0.0 0.0 0.00 0.18 0.18 92 1013.8
20260904191555 25 0 0.0 0.0 0.00 0.18 0.18 92 1014.0
20260904190052 25 0 0.0 0.0 0.03 0.18 0.18 92 1014.3
20260904184553 25 0 0.0 0.0 0.08 0.18 0.18 92 1014.5
20260904183054 25 0 0.0 0.0 0.15 0.18 0.18 91 1014.9
20260904181603 25 0 0.0 0.0 0.15 0.18 0.18 91 1015.2
20260904180103 25 0 0.0 0.0 0.13 0.15 0.15 89 1015.1
20260904174556 26 0 0.0 0.0 0.08 0.10 0.10 87 1015.7
20260904173056 27 0 0.0 0.0 0.00 0.03 0.03 81 1016.1
20260904171551 29 0 0.0 1.6 0.00 0.03 0.03 76 1015.2
20260904170058 31 0 0.0 4.8 0.00 0.03 0.03 71 1015.2
20260904164554 33 0 0.0 0.0 0.00 0.03 0.03 68 1015.1
20260904163052 32 0 0.0 0.0 0.00 0.03 0.03 71 1015.1
20260904161558 32 0 0.0 0.0 0.00 0.03 0.03 74 1014.8